DW8006 Weather Reports


time (UTC)temp
F
wind
direction
speed
knots
gust
knots
rain 1hr
in
rain 24hr
in
rain mn
in
humidity
%
barometer
mb
20260507150843 57 309 0.9 3.5 0.00 0.04 0.02 66 1014.6
20260507150344 58 138 1.7 7.8 0.00 0.04 0.02 63 1014.6
20260507144837 58 244 1.7 6.1 0.00 0.04 0.02 64 1014.6
20260507144338 56 274 0.9 5.2 0.00 0.04 0.02 67 1014.6
20260507142838 57 248 1.7 6.1 0.00 0.04 0.02 64 1014.6
20260507141837 57 208 1.7 7.8 0.00 0.04 0.02 66 1014.6
20260507140836 58 232 0.9 7.0 0.00 0.04 0.02 66 1014.6
20260507135837 56 246 1.7 6.1 0.00 0.04 0.02 70 1014.6
20260507134838 56 241 0.9 4.3 0.00 0.04 0.02 69 1014.8
20260507133837 56 315 0.9 5.2 0.00 0.04 0.02 70 1014.8
20260507132837 56 289 2.6 8.7 0.00 0.04 0.02 66 1014.7
20260507131835 56 250 1.7 7.0 0.00 0.04 0.02 69 1014.7
20260507130835 55 279 0.9 5.2 0.00 0.04 0.02 73 1014.7
20260507125835 55 28 0.9 4.3 0.00 0.04 0.02 74 1014.6
20260507124835 55 5 0.9 2.6 0.00 0.04 0.02 73 1014.7
20260507123835 55 257 0.9 3.5 0.00 0.04 0.02 72 1014.7
20260507122835 56 284 1.7 7.0 0.00 0.04 0.02 72 1014.6
20260507121833 55 309 1.7 7.8 0.00 0.05 0.02 77 1014.4
20260507120833 55 221 1.7 7.8 0.00 0.05 0.02 77 1014.4
20260507115833 55 226 2.6 7.8 0.00 0.06 0.02 75 1014.4
20260507114833 55 246 1.7 7.8 0.00 0.06 0.02 74 1014.4
20260507113833 54 254 1.7 7.0 0.00 0.06 0.02 76 1014.4
20260507112837 54 267 1.7 7.0 0.00 0.06 0.02 78 1014.4
20260507112833 54 254 1.7 6.1 0.00 0.06 0.02 78 1014.4
20260507110833 54 259 1.7 6.1 0.00 0.06 0.02 80 1014.5
20260507105832 53 286 0.9 4.3 0.00 0.06 0.02 80 1014.4
20260507104832 52 243 0.9 6.1 0.00 0.06 0.02 79 1014.4
20260507103832 52 22 0.9 4.3 0.00 0.06 0.02 82 1014.5
20260507102833 52 80 0.9 4.3 0.00 0.06 0.02 81 1014.4
20260507101833 52 81 0.9 5.2 0.00 0.07 0.02 80 1014.4
20260507100832 52 15 0.0 2.6 0.00 0.07 0.02 82 1014.4
20260507095832 52 86 1.7 4.3 0.00 0.07 0.02 81 1014.2
20260507095332 52 289 1.7 7.8 0.00 0.07 0.02 83 1014.2
20260507093832 51 336 1.7 7.8 0.00 0.08 0.02 81 1014.1
20260507093333 51 215 1.7 5.2 0.00 0.08 0.02 84 1014.0
20260507091832 51 93 1.7 8.7 0.00 0.09 0.02 89 1013.9
20260507090832 49 295 1.7 6.1 0.00 0.09 0.02 89 1013.8
20260507090334 48 105 0.9 5.2 0.00 0.09 0.02 91 1013.8
20260507084832 48 95 0.9 3.5 0.00 0.09 0.02 94 1013.7
20260507083832 48 58 0.9 6.1 0.00 0.09 0.02 94 1013.6
20260507082832 47 30 0.9 3.5 0.00 0.09 0.02 94 1013.6
20260507081832 48 180 0.9 5.2 0.00 0.09 0.02 94 1013.6
20260507080832 47 284 1.7 10.4 0.00 0.09 0.02 94 1013.5
20260507075832 46 111 0.0 4.3 0.00 0.09 0.02 94 1013.5
20260507074832 46 46 0.9 7.8 0.00 0.09 0.02 94 1013.3
20260507073832 46 62 0.9 7.0 0.00 0.09 0.02 94 1013.3
20260507072832 46 284 0.9 7.0 0.00 0.09 0.02 94 1013.1
20260507071832 46 196 0.9 6.1 0.00 0.09 0.02 94 1013.0
20260507070832 45 70 0.9 7.8 0.00 0.09 0.02 94 1012.9
20260507065832 45 0 0.9 3.5 0.00 0.09 0.02 94 1012.8
20260507064837 45 162 0.9 7.0 0.00 0.09 0.02 94 1012.8
20260507064832 45 244 0.0 2.6 0.00 0.09 0.02 94 1012.8
20260507062829 44 221 0.0 5.2 0.00 0.09 0.02 94 1012.6
20260507061828 44 52 0.9 6.1 0.00 0.09 0.02 94 1012.6
20260507060828 44 296 0.9 4.3 0.00 0.09 0.02 94 1012.5
20260507054824 44 112 0.9 3.5 0.00 0.09 0.02 94 1012.2
20260507053825 44 307 0.9 6.1 0.00 0.09 0.02 94 1012.0
20260507052825 44 111 0.9 7.0 0.00 0.09 0.02 94 1012.0
20260507052323 44 271 0.0 3.5 0.00 0.09 0.02 94 1012.0
20260507052039 44 232 0.9 2.6 0.00 0.10 0.02 94 1011.8
20260507045822 44 119 0.0 3.5 0.00 0.12 0.02 94 1011.7
20260507044822 44 130 0.0 2.6 0.00 0.13 0.02 94 1011.5
20260507043823 44 87 0.0 2.6 0.00 0.13 0.02 94 1011.5
20260507042823 44 350 0.0 3.5 0.00 0.13 0.02 94 1011.4
20260507041822 44 24 0.0 2.6 0.00 0.13 0.02 94 1011.2
20260507040823 44 279 0.9 5.2 0.00 0.13 0.02 94 1011.2
20260507035822 44 296 0.9 3.5 0.00 0.13 0.02 94 1011.1
20260507034823 44 272 0.0 2.6 0.00 0.13 0.02 94 1011.1
20260507033822 44 259 0.0 3.5 0.00 0.13 0.02 94 1011.1
20260507032822 44 307 0.9 6.1 0.01 0.13 0.02 94 1011.0
20260507031822 44 355 0.0 2.6 0.01 0.13 0.02 94 1011.1
20260507031323 44 97 0.0 1.7 0.01 0.13 0.02 94 1011.0
20260507030323 44 38 0.0 4.3 0.01 0.13 0.02 94 1010.9
20260507024822 44 92 0.0 2.6 0.01 0.13 0.02 94 1011.0
20260507023822 44 319 0.9 5.2 0.01 0.13 0.02 94 1011.1
20260507022823 44 103 0.0 2.6 0.00 0.12 0.01 94 1011.0
20260507021823 44 270 0.0 1.7 0.00 0.12 0.01 94 1010.9
20260507020819 44 136 0.0 4.3 0.00 0.12 0.01 94 1010.8
20260507015816 44 33 0.9 3.5 0.00 0.12 0.01 94 1010.7
20260507014816 44 55 0.9 4.3 0.00 0.12 0.01 94 1010.6
20260507013817 44 86 0.0 2.6 0.00 0.13 0.01 94 1010.6
20260507012816 44 119 0.9 4.3 0.00 0.13 0.01 94 1010.5
20260507011816 44 40 0.9 4.3 0.00 0.13 0.01 94 1010.5
20260507011318 44 71 0.9 2.6 0.00 0.13 0.01 94 1010.4
20260507005817 45 65 0.0 3.5 0.00 0.13 0.01 94 1010.3
20260507004816 45 232 0.0 2.6 0.00 0.13 0.01 94 1010.3
20260507003816 45 227 0.0 3.5 0.00 0.13 0.01 94 1010.1
20260507002816 45 280 0.0 5.2 0.00 0.13 0.01 94 1010.0
20260507001816 45 134 0.0 2.6 0.00 0.13 0.01 94 1010.0
20260507000817 45 223 0.0 4.3 0.00 0.13 0.01 94 1010.0
20260506235817 45 90 0.0 2.6 0.00 0.13 0.01 94 1010.0
20260506234816 45 38 0.9 4.3 0.00 0.13 0.01 94 1009.9
20260506233816 45 231 0.9 6.1 0.01 0.13 0.01 94 1009.8
20260506232816 45 327 0.0 3.5 0.01 0.13 0.01 94 1009.9
20260506231815 45 139 0.0 2.6 0.01 0.13 0.01 94 1009.8
20260506231317 45 64 0.0 2.6 0.01 0.13 0.01 94 1009.8
20260506225817 45 59 0.0 2.6 0.01 0.13 0.01 94 1009.9
20260506224821 45 98 0.0 2.6 0.01 0.12 0.00 94 1009.8
20260506224816 45 86 0.9 6.1 0.02 0.13 0.01 94 1009.8
20260506222816 45 43 0.0 3.5 0.01 0.12 0.00 94 1009.7
20260506221810 45 290 0.9 5.2 0.01 0.12 0.00 94 1009.6
20260506221312 45 49 0.0 3.5 0.01 0.12 0.00 94 1009.5
20260506215809 45 51 0.0 0.0 0.01 0.13 0.13 94 1009.4
20260506214808 45 101 0.0 3.5 0.00 0.12 0.12 94 1009.4
20260506213806 45 315 0.9 5.2 0.00 0.12 0.12 94 1009.4
20260506212807 45 145 0.9 5.2 0.00 0.12 0.12 94 1009.4
20260506211807 45 207 0.9 6.1 0.00 0.12 0.12 94 1009.3
20260506210807 45 329 0.9 5.2 0.00 0.13 0.12 94 1009.3
20260506205804 45 76 0.9 3.5 0.00 0.13 0.12 94 1009.0
20260506204801 45 234 0.9 2.6 0.01 0.14 0.12 94 1009.0
20260506203801 45 206 0.9 2.6 0.01 0.15 0.12 94 1008.9
20260506202801 45 72 0.9 5.2 0.01 0.16 0.12 93 1008.9
20260506201801 45 205 0.9 3.5 0.01 0.18 0.12 93 1008.7
20260506200801 46 105 0.9 3.5 0.01 0.20 0.12 94 1008.7
20260506195801 46 86 0.9 6.1 0.02 0.21 0.12 94 1008.6
20260506194801 46 57 0.9 4.3 0.01 0.23 0.11 94 1008.5
20260506193801 46 94 0.0 2.6 0.01 0.25 0.11 94 1008.5
20260506192801 46 91 0.0 2.6 0.01 0.27 0.11 94 1008.4
20260506191754 46 284 0.0 3.5 0.01 0.28 0.11 93 1008.2
20260506190755 46 274 0.0 3.5 0.01 0.30 0.11 93 1008.1
20260506185755 46 265 0.0 2.6 0.00 0.31 0.10 93 1008.0
20260506184754 46 45 0.0 2.6 0.00 0.34 0.10 93 1007.9
20260506184256 46 254 0.0 2.6 0.00 0.38 0.10 93 1007.8
20260506182756 46 256 0.9 2.6 0.00 0.39 0.10 93 1007.8
20260506181755 46 277 0.9 3.5 0.00 0.40 0.10 93 1007.8
20260506180756 46 252 0.9 5.2 0.00 0.41 0.10 93 1007.6
20260506180256 46 218 0.9 4.3 0.00 0.42 0.10 93 1007.6
20260506174753 46 257 0.9 6.1 0.00 0.43 0.10 93 1007.5
20260506173753 46 13 0.9 7.8 0.00 0.46 0.10 93 1007.4
20260506172753 47 229 0.9 6.1 0.00 0.46 0.10 93 1007.4
20260506171753 47 228 0.9 3.5 0.00 0.46 0.10 93 1007.4
20260506171253 47 257 0.9 4.3 0.00 0.47 0.10 93 1007.2
20260506165753 47 220 0.9 4.3 0.00 0.47 0.10 93 1007.3
20260506164753 47 234 0.0 1.7 0.00 0.48 0.10 93 1007.3
20260506163753 47 5 0.9 3.5 0.00 0.48 0.10 93 1007.2
20260506162750 47 341 0.9 3.5 0.00 0.49 0.10 93 1007.2
20260506161750 48 304 0.9 4.3 0.00 0.52 0.10 93 1007.1
20260506160751 48 283 0.9 5.2 0.00 0.55 0.10 93 1007.1
20260506155751 48 232 0.0 4.3 0.00 0.59 0.10 93 1007.1
20260506154751 48 196 0.9 7.8 0.00 0.60 0.10 93 1007.2
20260506154251 48 103 0.9 4.3 0.00 0.61 0.10 93 1006.9
20260506153252 48 52 0.0 2.6 0.00 0.62 0.10 93 1006.9
20260506151751 48 223 0.0 2.6 0.00 0.64 0.10 93 1006.6